Location: Lane
(33.5226°N, 79.8788°W)
Time: 12:48:18
(UTC+00:00)

Tiros 1 despin weight - Pass Details

Date: 03 October 2022
Orbit: 590 x 637 km, 48.2° (Epoch: 25 November)

Event Time Altitude Azimuth Distance (km) Brightness Sun altitude
Rises 19:58:17 0° 225° (SW) 2,813 ? 35.0°
Reaches altitude 10° 20:00:33 10° 223° (SW) 1,919 ? 34.6°
Maximum altitude 20:04:56 72° 139° (SE) 630 ? 33.8°
Drops below altitude 10° 20:09:24 10° 55° (NE) 1,955 ? 33.0°
Sets 20:11:43 0° 54° (NE) 2,870 ? 32.6°
